FW8032 Weather Reports


Display with metric or nautical units.
time (UTC)temp
F
wind
direction
speed
MPH
gust
MPH
rain 1hr
in
rain 24hr
in
rain mn
in
humidity
%
barometer
mb
20260507053739 44 36 0.0 0.0 0.00 0.00 0.00 89 1019.9
20260507053236 44 36 0.0 0.0 0.00 0.00 0.00 89 1019.9
20260507052735 44 36 0.0 0.0 0.00 0.00 0.00 88 1020.2
20260507052231 45 36 0.0 0.0 0.00 0.00 0.00 88 1019.9
20260507051729 45 36 0.0 0.0 0.00 0.00 0.00 87 1019.9
20260507051226 45 36 0.0 0.0 0.00 0.00 0.00 86 1019.5
20260507050722 45 36 0.0 0.0 0.00 0.00 0.00 85 1019.9
20260507050220 45 36 0.0 0.0 0.00 0.00 0.00 84 1019.9
20260507045716 45 36 0.0 0.0 0.00 0.01 0.01 84 1019.9
20260507045212 45 36 0.0 0.0 0.00 0.01 0.01 84 1019.5
20260507044710 45 36 0.0 0.0 0.00 0.01 0.01 84 1020.2
20260507044206 45 36 0.0 0.0 0.00 0.01 0.01 83 1019.9
20260507043702 45 36 0.0 0.0 0.00 0.01 0.01 84 1019.9
20260507043159 46 36 0.0 0.0 0.00 0.01 0.01 84 1019.9
20260507042656 46 36 0.0 0.0 0.00 0.01 0.01 84 1019.9
20260507042150 46 36 0.0 0.0 0.00 0.01 0.01 84 1019.9
20260507041648 46 36 0.0 0.0 0.00 0.01 0.01 85 1019.5
20260507041144 46 36 0.0 0.0 0.00 0.01 0.01 85 1019.9
20260507040642 46 36 0.0 0.0 0.00 0.01 0.01 85 1019.5
20260507040138 46 36 0.0 0.0 0.00 0.01 0.01 84 1019.5
20260507035634 47 36 0.0 0.0 0.00 0.01 0.01 83 1019.5
20260507035130 47 36 0.0 0.0 0.00 0.01 0.01 83 1019.9
20260507034627 47 36 0.0 0.0 0.00 0.01 0.01 82 1019.5
20260507034125 47 36 0.0 0.0 0.00 0.01 0.01 81 1019.2
20260507033623 47 36 0.0 0.0 0.00 0.01 0.01 80 1019.2
20260507033119 47 36 0.0 0.0 0.00 0.01 0.01 80 1019.2
20260507032617 47 36 0.0 0.0 0.00 0.01 0.01 80 1019.5
20260507032113 47 36 0.0 0.0 0.00 0.01 0.01 78 1019.2
20260507031610 47 36 0.0 0.0 0.00 0.01 0.01 78 1019.2
20260507031106 48 36 0.0 0.0 0.00 0.01 0.01 78 1019.2
20260507030603 48 36 0.0 0.0 0.00 0.01 0.01 78 1019.5
20260507030101 48 36 0.0 0.0 0.00 0.01 0.01 78 1019.2
20260507025558 48 36 0.0 0.0 0.00 0.01 0.01 79 1019.2
20260507025055 48 36 0.0 0.0 0.00 0.01 0.01 77 1019.2
20260507024553 49 36 0.0 0.0 0.00 0.01 0.01 77 1019.2
20260507024050 49 36 0.0 0.0 0.00 0.01 0.01 77 1019.2
20260507023545 49 36 0.0 0.0 0.00 0.01 0.01 75 1019.2
20260507023043 49 36 0.0 0.0 0.00 0.01 0.01 72 1019.2
20260507022539 50 36 0.0 0.0 0.00 0.01 0.01 71 1019.2
20260507022035 50 36 0.0 0.0 0.00 0.01 0.01 71 1019.2
20260507021531 50 36 0.0 0.0 0.00 0.01 0.01 71 1019.2
20260507021028 51 36 0.0 0.0 0.00 0.01 0.01 71 1018.8
20260507020525 51 36 0.0 0.0 0.00 0.01 0.01 70 1018.8
20260507020022 51 36 0.0 0.0 0.00 0.01 0.01 70 1018.8
20260507015520 51 36 0.0 0.0 0.00 0.01 0.01 69 1018.5
20260507015017 51 36 0.0 0.0 0.00 0.01 0.01 69 1018.5
20260507014514 51 36 0.0 0.0 0.00 0.01 0.01 66 1018.8
20260507014010 52 36 0.0 0.0 0.00 0.01 0.01 66 1018.8
20260507013506 52 36 0.0 0.0 0.00 0.01 0.01 65 1018.5
20260507013004 53 36 0.0 0.0 0.00 0.01 0.01 64 1018.5
20260507012501 53 36 0.0 0.0 0.00 0.01 0.01 60 1018.5
20260507011957 54 36 0.0 0.0 0.00 0.01 0.01 59 1018.5
20260507011454 54 36 0.0 0.0 0.00 0.01 0.01 60 1018.1
20260507010950 55 36 0.0 0.0 0.00 0.01 0.01 56 1018.1
20260507010444 56 36 0.0 0.0 0.00 0.01 0.01 57 1018.1
20260507005942 56 36 0.0 0.0 0.00 0.01 0.01 56 1018.1
20260507005439 57 36 0.0 0.0 0.00 0.01 0.01 56 1018.1
20260507004935 58 36 0.0 0.0 0.00 0.01 0.01 53 1018.1
20260507004432 58 36 0.0 0.0 0.00 0.01 0.01 55 1018.5
20260507003930 59 36 0.0 0.0 0.00 0.01 0.01 52 1018.1
20260507003424 60 36 0.0 0.0 0.00 0.01 0.01 52 1018.1
20260507002920 60 36 0.0 0.0 0.00 0.01 0.01 48 1018.1
20260507002416 60 36 0.0 0.0 0.00 0.01 0.01 48 1018.1
20260507001914 60 37 0.0 0.0 0.00 0.01 0.01 48 1018.1
20260507001410 61 36 0.0 0.0 0.00 0.01 0.01 49 1017.7
20260507000908 61 36 0.0 0.0 0.00 0.01 0.01 48 1017.7
20260507000405 62 36 0.0 0.0 0.00 0.01 0.01 46 1017.7
20260506235859 63 36 0.0 0.0 0.00 0.01 0.01 43 1017.7
20260506235356 64 108 0.0 0.0 0.00 0.01 0.01 43 1017.4
20260506234852 65 312 2.0 2.0 0.00 0.01 0.01 42 1017.4
20260506234350 65 54 0.0 0.0 0.00 0.01 0.01 44 1017.4
20260506233847 65 96 0.0 0.0 0.00 0.01 0.01 44 1017.0
20260506233343 66 36 0.0 0.0 0.00 0.01 0.01 43 1017.4
20260506232840 66 54 0.0 0.0 0.00 0.01 0.01 44 1017.4
20260506232336 65 42 0.0 0.0 0.00 0.01 0.01 41 1017.0
20260506231827 66 65 0.0 0.0 0.00 0.01 0.01 43 1017.4
20260506231324 66 40 0.0 0.0 0.00 0.01 0.01 42 1016.7
20260506230822 65 60 1.0 1.0 0.00 0.01 0.01 42 1017.4
20260506230318 65 56 2.0 2.0 0.00 0.01 0.01 40 1017.0
20260506225814 66 66 0.0 0.0 0.00 0.01 0.01 43 1017.0
20260506225312 65 38 0.0 0.0 0.00 0.01 0.01 42 1017.0
20260506224809 65 54 1.0 1.0 0.00 0.01 0.01 41 1017.0
20260506224306 65 49 2.0 2.0 0.00 0.01 0.01 42 1017.0
20260506223802 67 36 2.0 2.0 0.00 0.01 0.01 39 1017.0
20260506223257 67 36 2.0 2.0 0.00 0.01 0.01 38 1017.0
20260506222754 66 54 0.0 0.0 0.00 0.01 0.01 42 1017.0
20260506222250 66 42 0.0 0.0 0.00 0.01 0.01 42 1017.0
20260506221748 66 37 0.0 0.0 0.00 0.01 0.01 39 1017.0
20260506221246 65 60 0.0 0.0 0.00 0.01 0.01 41 1017.0
20260506220743 65 36 0.0 0.0 0.00 0.01 0.01 40 1017.0
20260506220238 65 81 2.0 2.0 0.00 0.01 0.01 45 1017.0
20260506215735 65 25 2.0 2.0 0.00 0.01 0.01 39 1017.4
20260506215230 65 24 0.0 0.0 0.00 0.01 0.01 42 1017.0
20260506214727 65 30 0.0 0.0 0.00 0.01 0.01 47 1017.0
20260506214224 65 61 0.0 0.0 0.00 0.01 0.01 43 1017.4
20260506213722 66 82 0.0 0.0 0.00 0.01 0.01 43 1017.4
20260506213219 67 88 0.0 0.0 0.00 0.01 0.01 43 1017.4
20260506212717 68 60 1.0 1.0 0.00 0.01 0.01 40 1017.4
20260506212212 68 18 2.0 2.0 0.00 0.01 0.01 42 1017.4
20260506211708 67 36 0.0 0.0 0.00 0.01 0.01 42 1017.4
20260506211204 66 54 2.0 2.0 0.00 0.01 0.01 43 1017.0
20260506210701 65 66 0.0 0.0 0.00 0.01 0.01 41 1017.4
20260506210158 66 24 2.0 2.0 0.00 0.01 0.01 42 1017.4
20260506205655 65 46 0.0 0.0 0.00 0.01 0.01 42 1017.4
20260506205150 65 78 0.0 0.0 0.00 0.01 0.01 41 1017.4
20260506204648 67 38 2.0 2.0 0.00 0.01 0.01 36 1017.7
20260506204144 66 42 0.0 0.0 0.00 0.01 0.01 41 1017.4
20260506203643 67 66 2.0 2.0 0.00 0.01 0.01 40 1017.7
20260506203139 67 88 0.0 0.0 0.00 0.01 0.01 40 1017.7
20260506202638 67 42 0.0 0.0 0.00 0.01 0.01 38 1017.7
20260506202133 68 30 0.0 0.0 0.00 0.01 0.01 40 1017.7
20260506201630 69 55 3.0 3.0 0.00 0.01 0.01 37 1017.7
20260506201127 67 24 0.0 0.0 0.00 0.01 0.01 39 1018.1
20260506200623 67 56 2.0 2.0 0.00 0.01 0.01 38 1018.1
20260506200120 67 60 0.0 0.0 0.00 0.01 0.01 40 1017.7
20260506195617 65 38 0.0 0.0 0.00 0.01 0.01 45 1017.7
20260506195113 65 77 1.0 1.0 0.00 0.01 0.01 46 1017.7
20260506194611 66 60 0.0 0.0 0.00 0.01 0.01 45 1018.1
20260506194107 65 74 0.0 0.0 0.00 0.01 0.01 48 1017.7
20260506193605 65 38 2.0 2.0 0.00 0.01 0.01 42 1018.1
20260506193102 66 42 2.0 2.0 0.00 0.01 0.01 42 1018.5
20260506192558 65 62 1.0 1.0 0.00 0.01 0.01 47 1018.5
20260506192054 64 74 1.0 1.0 0.00 0.01 0.01 44 1018.5
20260506191551 64 54 2.0 2.0 0.00 0.01 0.01 46 1018.8
20260506191047 63 36 0.0 0.0 0.00 0.01 0.01 42 1018.8
20260506190545 62 76 5.0 6.0 0.00 0.01 0.01 45 1018.8
20260506190042 62 52 3.0 3.0 0.00 0.01 0.01 45 1018.8
20260506185539 62 77 2.0 2.0 0.00 0.01 0.01 48 1018.8
20260506185035 63 37 2.0 2.0 0.00 0.01 0.01 46 1018.8
20260506184533 62 37 2.0 2.0 0.00 0.01 0.01 45 1018.8
20260506184030 62 47 2.0 2.0 0.00 0.01 0.01 45 1018.8
20260506183525 62 72 2.0 2.0 0.00 0.01 0.01 45 1019.2
20260506183023 64 84 2.0 2.0 0.00 0.01 0.01 46 1019.2
20260506182520 63 36 0.0 0.0 0.00 0.01 0.01 45 1019.2
20260506182017 62 42 2.0 2.0 0.00 0.01 0.01 47 1019.2
20260506181515 62 52 3.0 3.0 0.00 0.01 0.01 50 1019.2
20260506181011 62 32 2.0 2.0 0.00 0.01 0.01 44 1019.2
20260506180508 62 44 2.0 2.0 0.00 0.01 0.01 42 1019.5
20260506180005 62 48 2.0 2.0 0.00 0.01 0.01 48 1019.5
20260506175501 62 42 0.0 0.0 0.00 0.01 0.01 48 1019.5
20260506174957 62 14 2.0 2.0 0.00 0.01 0.01 48 1019.9
20260506174456 62 48 1.0 1.0 0.00 0.01 0.01 48 1019.9
20260506173952 61 42 2.0 2.0 0.00 0.01 0.01 51 1019.5
20260506173450 61 30 6.0 6.0 0.00 0.01 0.01 50 1019.5
20260506172946 60 87 0.0 0.0 0.00 0.01 0.01 51 1019.9
20260506172444 60 90 1.0 1.0 0.00 0.01 0.01 49 1019.9
20260506171940 60 42 0.0 0.0 0.00 0.01 0.01 50 1019.9
20260506171437 60 56 1.0 1.0 0.00 0.01 0.01 50 1019.9
20260506170935 59 54 2.0 2.0 0.00 0.01 0.01 49 1020.2
20260506170431 58 60 0.0 0.0 0.00 0.01 0.01 54 1019.9
20260506165930 58 67 2.0 2.0 0.00 0.01 0.01 51 1020.2
20260506165428 58 58 1.0 1.0 0.00 0.01 0.01 54 1020.2
20260506164918 58 56 3.0 3.0 0.00 0.01 0.01 50 1020.2
20260506164415 59 48 2.0 2.0 0.00 0.01 0.01 52 1019.9
20260506163913 59 39 2.0 2.0 0.00 0.01 0.01 50 1019.5
20260506163407 59 31 2.0 2.0 0.00 0.01 0.01 55 1019.5
20260506162903 58 31 2.0 2.0 0.00 0.01 0.01 56 1019.2
20260506162401 58 144 0.0 0.0 0.00 0.01 0.01 58 1019.2
20260506161858 57 36 2.0 2.0 0.00 0.01 0.01 56 1019.2
20260506161355 57 76 2.0 2.0 0.00 0.01 0.01 58 1018.8
20260506160853 56 77 2.0 2.0 0.00 0.01 0.01 58 1018.5
20260506160350 57 84 2.0 2.0 0.00 0.01 0.01 57 1018.8
20260506155848 56 73 3.0 3.0 0.00 0.01 0.01 58 1018.8
20260506155344 56 75 2.0 2.0 0.00 0.01 0.01 60 1018.5
20260506153502 56 18 2.0 2.0 0.00 0.01 0.01 60 1018.5
20260506152959 56 20 2.0 2.0 0.00 0.01 0.01 59 1018.5
20260506152456 56 36 2.0 2.0 0.00 0.01 0.01 62 1018.8
20260506151954 56 37 2.0 2.0 0.00 0.01 0.01 62 1018.8
20260506151452 55 12 2.0 2.0 0.00 0.01 0.01 64 1018.8
20260506150949 55 12 2.0 2.0 0.00 0.01 0.01 63 1018.8
20260506150445 55 18 2.0 2.0 0.00 0.01 0.01 64 1019.2
20260506145942 55 30 0.0 0.0 0.00 0.01 0.01 65 1018.8
20260506145438 55 6 2.0 2.0 0.00 0.01 0.01 66 1018.5
20260506144936 54 32 2.0 2.0 0.00 0.01 0.01 66 1018.5
20260506144432 53 18 2.0 2.0 0.00 0.01 0.01 71 1018.1
20260506143931 53 60 2.0 2.0 0.00 0.01 0.01 72 1018.5
20260506143427 53 12 2.0 2.0 0.00 0.01 0.01 72 1018.1
20260506142926 52 12 2.0 2.0 0.00 0.01 0.01 75 1018.5
20260506142423 52 18 2.0 2.0 0.00 0.01 0.01 73 1018.5
20260506141921 51 12 1.0 1.0 0.00 0.01 0.01 77 1018.5
20260506141419 51 42 3.0 4.0 0.00 0.01 0.01 78 1018.1
20260506140917 51 0 2.0 2.0 0.00 0.01 0.01 77 1018.8
20260506140414 50 12 2.0 2.0 0.00 0.01 0.01 77 1018.5
20260506135911 50 12 2.0 2.0 0.00 0.01 0.01 78 1018.8
20260506135408 49 20 2.0 2.0 0.00 0.01 0.01 80 1018.5
20260506134904 49 19 2.0 2.0 0.00 0.01 0.01 79 1018.8
20260506134400 48 84 2.0 2.0 0.00 0.01 0.01 79 1018.8
20260506133857 48 82 2.0 2.0 0.00 0.01 0.01 79 1018.5
20260506133354 48 90 3.0 3.0 0.00 0.01 0.01 81 1018.5
20260506132850 47 78 3.0 3.0 0.00 0.01 0.01 81 1018.5
20260506132348 47 77 2.0 2.0 0.00 0.01 0.01 81 1018.5
20260506131846 47 72 3.0 3.0 0.00 0.01 0.01 83 1018.5
20260506131342 47 48 2.0 2.0 0.00 0.01 0.01 83 1018.5
20260506130839 47 42 2.0 2.0 0.00 0.01 0.01 85 1018.1
20260506130335 47 42 2.0 2.0 0.00 0.01 0.01 84 1018.5
20260506125833 47 60 2.0 2.0 0.00 0.01 0.01 84 1018.5
20260506125332 47 66 2.0 2.0 0.00 0.01 0.01 85 1018.1
20260506124830 47 64 3.0 3.0 0.00 0.01 0.01 85 1018.5
20260506124326 47 36 2.0 2.0 0.00 0.01 0.01 86 1018.5
20260506123824 46 12 1.0 1.0 0.00 0.01 0.01 89 1018.1
20260506123322 46 12 1.0 1.0 0.00 0.01 0.01 89 1018.1
20260506122819 46 12 2.0 2.0 0.00 0.01 0.01 90 1018.1
20260506122316 46 12 2.0 2.0 0.00 0.01 0.01 90 1018.1
20260506121814 46 12 2.0 2.0 0.00 0.01 0.01 91 1018.5
20260506121311 46 12 2.0 2.0 0.00 0.01 0.01 92 1018.1
20260506120808 46 12 2.0 2.0 0.00 0.01 0.01 93 1018.5
20260506120306 46 63 2.0 2.0 0.00 0.01 0.01 93 1018.5
20260506115803 46 48 0.0 0.0 0.00 0.01 0.01 94 1018.8
20260506115306 46 48 0.0 0.0 0.00 0.01 0.01 94 1018.5
20260506114759 46 48 0.0 0.0 0.00 0.01 0.01 94 1018.5
20260506114256 46 48 0.0 0.0 0.00 0.01 0.01 94 1018.5
20260506113755 46 48 0.0 0.0 0.00 0.01 0.01 94 1018.5
20260506113252 46 48 0.0 0.0 0.00 0.01 0.01 94 1017.7
20260506112748 46 48 0.0 0.0 0.00 0.01 0.01 94 1018.1
20260506112246 46 42 0.0 0.0 0.00 0.01 0.01 94 1017.7
20260506111743 46 42 0.0 0.0 0.00 0.01 0.01 94 1017.7
20260506111241 46 42 0.0 0.0 0.00 0.01 0.01 94 1017.7
20260506110737 46 42 0.0 0.0 0.00 0.01 0.01 94 1017.7
20260506110235 46 42 0.0 0.0 0.00 0.01 0.01 94 1017.7
20260506105731 46 42 0.0 0.0 0.00 0.01 0.01 94 1017.7
20260506105229 46 42 0.0 0.0 0.00 0.01 0.01 94 1017.4
20260506104727 46 42 0.0 0.0 0.00 0.01 0.01 94 1017.4
20260506104224 46 42 0.0 0.0 0.00 0.01 0.01 93 1017.4
20260506103721 46 42 0.0 0.0 0.00 0.01 0.01 93 1017.4
20260506103218 46 42 0.0 0.0 0.00 0.01 0.01 93 1017.0
20260506102716 46 42 0.0 0.0 0.00 0.01 0.01 93 1016.7
20260506102214 46 42 0.0 0.0 0.00 0.01 0.01 93 1016.7
20260506101710 46 42 0.0 0.0 0.00 0.01 0.01 93 1017.0
20260506101207 46 42 2.0 2.0 0.00 0.01 0.01 93 1017.0
20260506100705 46 37 0.0 0.0 0.00 0.01 0.01 93 1017.0
20260506100203 46 37 0.0 0.0 0.00 0.01 0.01 93 1016.7
20260506095701 46 37 0.0 0.0 0.00 0.01 0.01 93 1016.4
20260506095157 46 37 0.0 0.0 0.00 0.01 0.01 93 1016.4
20260506094655 46 37 0.0 0.0 0.00 0.01 0.01 93 1016.4
20260506094152 46 37 0.0 0.0 0.00 0.01 0.01 93 1016.0
20260506093651 46 37 0.0 0.0 0.00 0.01 0.01 93 1016.4
20260506093148 46 37 0.0 0.0 0.00 0.01 0.01 93 1016.0
20260506092645 46 37 0.0 0.0 0.00 0.01 0.01 92 1016.0
20260506092142 46 37 0.0 0.0 0.00 0.01 0.01 92 1016.4
20260506091641 46 37 0.0 0.0 0.00 0.01 0.01 92 1016.4
20260506091138 46 37 0.0 0.0 0.00 0.01 0.01 92 1016.0
20260506090636 46 37 0.0 0.0 0.00 0.01 0.01 92 1016.4
20260506090131 46 37 0.0 0.0 0.00 0.01 0.01 91 1015.7
20260506085629 46 37 2.0 2.0 0.01 0.01 0.01 91 1015.7
20260506085125 46 37 0.0 0.0 0.01 0.01 0.01 91 1015.7
20260506084621 46 37 0.0 0.0 0.01 0.01 0.01 90 1015.4
20260506084118 46 37 0.0 0.0 0.01 0.01 0.01 90 1015.4
20260506083615 46 36 0.0 0.0 0.00 0.00 0.00 89 1015.0
20260506083113 46 37 0.0 0.0 0.00 0.00 0.00 89 1015.0
20260506082609 46 37 2.0 2.0 0.00 0.00 0.00 88 1014.7
20260506082105 46 37 0.0 0.0 0.00 0.00 0.00 88 1014.7
20260506081603 46 77 0.0 0.0 0.00 0.00 0.00 89 1015.0
20260506081101 46 77 0.0 0.0 0.00 0.00 0.00 88 1014.7
20260506080558 46 58 2.0 2.0 0.00 0.00 0.00 89 1014.2
20260506073038 46 42 2.0 2.0 0.00 0.00 0.00 89 1014.2
20260506072536 46 36 0.0 0.0 0.00 0.00 0.00 89 1014.2
20260506072033 46 36 0.0 0.0 0.00 0.00 0.00 88 1013.9
20260506071531 46 36 1.0 1.0 0.00 0.00 0.00 88 1014.2
20260506071028 46 30 0.0 0.0 0.00 0.00 0.00 88 1014.7
20260506070525 46 30 0.0 0.0 0.00 0.00 0.00 87 1013.9
20260506062503 47 25 2.0 2.0 0.00 0.00 0.00 84 1015.0
20260506061959 47 24 0.0 0.0 0.00 0.00 0.00 84 1015.0
20260506061455 47 36 0.0 0.0 0.00 0.00 0.00 84 1015.7
20260506060953 48 36 0.0 0.0 0.00 0.00 0.00 84 1015.4
20260506060451 47 36 2.0 2.0 0.00 0.00 0.00 84 1015.0